Home > Weather > Tours > Past weeks

Flag for France Past Weather in Tours, Centre-Val de Loire, France — Yesterday and Last 2 Weeks

Now
79 °F

Passing clouds.


Feels Like: 80 °F
Forecast: 61 / 78 °F
Wind: 6 mph from Southwest

Location: Tours Airport

Current Time: Jul 25, 2016 at 12:03:45 PM

Latest Report: Jul 25, 2016 at 11:30 AM


Visibility: N/A

Pressure: 30.12 "Hg

Humidity: 54%

Dew Point: 61 °F

Location of ToursLocation

Past Weather in Tours — Graph

°F

Tours Temperature Yesterday

Maximum temperature yesterday: 84 °F (at 4:30 PM)
Minimum temperature yesterday: 61 °F (at 5:00 AM)
Average temperature yesterday: 73 °F

High & Low Weather Summary for the Past Weeks

 TemperatureHumidityPressure
High99 °F (Jul 19, 5:00 PM)94% (Jul 11, 6:00 AM)30.39 "Hg (Jul 11, 6:00 AM)
Low46 °F (Jul 15, 6:00 AM)21% (Jul 19, 5:00 PM)29.89 "Hg (Jul 10, 7:00 PM)
Average70 °F63%30.11 "Hg
* Reported Jul 10 10:00 AM — Jul 25 10:30 AM, Tours, Weather by CustomWeather, © 2016

Note: Actual official high and low records may vary slightly from our data, if they occured in-between our weather recording intervals... More about our weather records

Advertising

Tours Weather History for the Previous 24 Hours

Scroll right to see more
 ConditionsComfort  
Time TempWeatherWind HumidityBarometerVisibility
10:30 AM
Mon, Jul 25
75 °FPassing clouds.5 mph65%30.15 "HgN/A
10:00 AM73 °FSunny.2 mph69%30.15 "Hg10 mi
9:30 AM70 °FSunny.2 mph73%30.15 "Hg10 mi
9:00 AM68 °FSunny.3 mph78%30.15 "Hg10 mi
8:30 AM66 °FSunny.3 mph83%30.12 "Hg10 mi
8:00 AM64 °FSunny.3 mph88%30.12 "Hg10 mi
7:30 AM64 °FSunny.2 mph88%30.12 "Hg10 mi
7:00 AM63 °FClear.2 mph88%30.12 "Hg10 mi
6:30 AM63 °FClear.1 mph88%30.12 "Hg10 mi
6:00 AM63 °FClear.1 mph88%30.12 "Hg10 mi
5:30 AM63 °FClear.2 mph88%30.12 "Hg10 mi
5:00 AM63 °FClear.3 mph88%30.12 "Hg10 mi
4:30 AM63 °FClear.2 mph88%30.12 "Hg10 mi
4:00 AM64 °FClear.3 mph83%30.12 "Hg10 mi
3:30 AM64 °FClear.3 mph83%30.12 "Hg10 mi
3:00 AM66 °FClear.3 mph78%30.12 "Hg10 mi
2:30 AM66 °FClear.3 mph78%30.15 "Hg10 mi
2:00 AM68 °FClear.3 mph73%30.15 "Hg10 mi
1:30 AM68 °FClear.3 mph73%30.15 "Hg10 mi
1:00 AM70 °FClear.3 mph69%30.15 "Hg10 mi
12:30 AM70 °FClear.2 mph69%30.15 "Hg10 mi
12:00 AM70 °FClear.No wind69%30.15 "Hg10 mi
11:30 PM
Sun, Jul 24
73 °FClear.1 mph61%30.15 "Hg10 mi
11:00 PM75 °FClear.No wind57%30.12 "Hg10 mi
10:30 PM75 °FSunny.3 mph57%30.12 "Hg10 mi
10:00 PM77 °FPassing clouds.3 mph54%30.12 "HgN/A
9:30 PM79 °FSunny.5 mph51%30.12 "Hg10 mi
9:00 PM79 °FPassing clouds.5 mph51%30.12 "HgN/A
8:30 PM81 °FPassing clouds.7 mph45%30.12 "HgN/A
8:00 PM82 °FPassing clouds.7 mph42%30.12 "HgN/A
7:30 PM82 °FPassing clouds.8 mph40%30.09 "HgN/A
7:00 PM82 °FPassing clouds.9 mph42%30.09 "HgN/A
6:30 PM82 °FPassing clouds.9 mph42%30.09 "HgN/A
6:00 PM82 °FPassing clouds.9 mph40%30.12 "HgN/A
5:30 PM82 °FPassing clouds.7 mph40%30.12 "HgN/A
5:00 PM82 °FPassing clouds.7 mph40%30.12 "HgN/A
4:30 PM84 °FPassing clouds.7 mph40%30.12 "HgN/A
4:00 PM82 °FPassing clouds.9 mph42%30.12 "HgN/A
3:30 PM82 °FPassing clouds.7 mph37%30.12 "HgN/A
3:00 PM82 °FPassing clouds.8 mph42%30.15 "HgN/A
2:30 PM81 °FPassing clouds.6 mph42%30.15 "HgN/A
2:00 PM79 °FPassing clouds.7 mph48%30.15 "HgN/A
1:30 PM81 °FScattered clouds.6 mph45%30.15 "HgN/A
1:00 PM81 °FPartly sunny.7 mph48%30.15 "HgN/A
12:30 PM79 °FScattered clouds.3 mph48%30.15 "HgN/A
12:00 PM79 °FSunny.3 mph51%30.15 "Hg10 mi
Weather by CustomWeather, © 2016

See weather overviewHow to use our weather pages